CZ-3C DEB, 39351

Orbit data source: Space-Track

CZ-3C DEB, 39351 is space debris in HEO originally from a launch on Sun, 31 Oct 2010 UTC launched from the Xichang Space Center, China (XSC). Debris objects in space refer to the collection of defunct objects orbiting the Earth. Examples of debris include non-operational satellites, rocket bodies, and fragments generated from explosions, collisions, or faulty payload assembly.

Loading next visibility...
Identifier
39351, 2010-057R
Orbit
HEO
Country
Flag of CNCN / PRC
Related business
Manufacturer
CALT
Mission
Spacecraft
Bus & Motor
Unknown
Mass
Unknown
Launch date (UTC)
2010-10-31 (16 years ago)
Launch vehicle
Unknown
Launch site
Xichang Space Center, China (XSC)
Object type
Payload
Rocket body
Debris
Shape & HBR
Unknown shape, 0.3 m
Radar Cross Section
Medium (>0.1 m² and <1 m²)

Expand to show TLE details & history
Last TLE update: 1 day ago

TLE from 1 day ago
0 CZ-3C DEB
1 39351U 10057R   26171.06746559 -.00000050  00000-0  98352-3 0  9999
2 39351  20.4142 104.2043 7109996 134.1060 356.8298  2.26490325105084
Epoch: 2026-06-20T01:37Z
TLE epoch observation values (Epoch: 2026-06-20T01:37:09.026Z)
Latitude
19.55988°
Longitude
-79.88493°
Altitude
1,020.786 km
Speed
9.565 km/s
True Right ascension
14h 10m 45s
True Declination
19° 27' 20"
Sunlit
Object was in daylight at epoch
Visualization orbit readout
Latitude
Unknown
Longitude
Unknown
Altitude
Unknown
Speed
Unknown
Apparent Right ascension
Unknown
Apparent Declination
Unknown
Sunlit
N/A
Visualization observer readout
Local Sidereal Time
18:51:36
Azimuth
Unknown
Elevation
Unknown
Doppler factor
Unknown
Orbital elements
Apogee altitude
35,536.002 km
Perigee altitude
701.469 km
Semi-major axis
24,496.872 km
Eccentricity
0.711
Inclination
20.4142°
RAAN
104.2043°
Arg. of periapsis
134.106°
True anomaly
334.06617°
Mean anomaly
356.8298°
Eccentric anomaly
349.18805°
Mean motion
0.56608 °/min
Orbital period
635.95 mins
BSTAR
0.00098352
Loading maneuver chart data...
Computing Atmospheric mass density...
Loading historical data...
Loading historical data...
Loading historical data...
Loading historical data...
Loading historical data...
Loading historical data...
Loading historical data...

Documentation

Showing up to 5 results
|